Location: Unspecified
(33.6682°S, 0.0000°E)
Time: 11:53:43
(UTC+00:00)

Tiros 1 despin weight - Pass Details

Date: 19 June 2019
Orbit: 594 x 642 km, 48.2° (Epoch: 20 July)

Event Time Altitude Azimuth Distance (km) Brightness Sun altitude
Rises 14:24:38 0° 245° (WSW) 2,961 ? 23.5°
Reaches altitude 10° 14:28:01 10° 220° (SW) 2,057 ? 23.1°
Maximum altitude 14:30:36 14° 187° (S) 1,784 ? 22.8°
Drops below altitude 10° 14:33:11 10° 154° (SSE) 2,060 ? 22.4°
Sets 14:36:36 0° 129° (SE) 2,968 ? 22.0°
